STARLINK-4072 (52694 NORAD) Tracking and Keplerian Element Data

This shows tracking and keplerian element data for the satellite.

Feedback or suggestion? Click here.




ElementValue
Catalog52694
NameSTARLINK-4072
Epoch Orbit2092
Epoch Day269.63302562
Epoch Year2022
RAAN40.7224
Inclination53.2198
Eccentricity0.0001309
Argument of Perigee45.8596
Mean Anonmoly314.2504
Mean Motion15.08830086
Decay Rate3.864E-05
L11 52694U 22053AQ 22269.63302562 .00003864 00000+0 26082-3 0 9997
L22 52694 53.2198 40.7224 0001309 45.8596 314.2504 15.08830086 20926

Live tracking and technical data element details for STARLINK-4072 (NORAD 52694). STARLINK-4072 can be tracked NOW for your location showing map with azimuth and elevation plus other details from your city location.

Track the satellite on the map from your city or location and see movement details for azimuth, elevation, latitude, longitude, range, height, and movement on the map or in text.







IsCatalogInMostPopularTable: catalog: 52694, numindb: 10
Update: records affected: 1



GetName: 52694 STARLINK-4072

Hit Count: updated at: Thu, 06 Oct 2022 04:41:30 GMT